Location: Zagreb
(45.8000°N, 16.0000°E)
Time: 01:06:42
(UTC+01:00)

NUDT-PHONESAT - Pass Details

Date: 05 November 2020
Orbit: 481 x 500 km, 97.4° (Epoch: 30 November)

Event Time Altitude Azimuth Distance (km) Brightness Sun altitude
Rises 05:43:39 0° 28° (NNE) 2,582 ? -10.6°
Reaches altitude 10° 05:46:16 10° 48° (NE) 1,689 ? -10.1°
Maximum altitude 05:48:47 18° 92° (E) 1,268 ? -9.7°
Drops below altitude 10° 05:51:18 10° 137° (SE) 1,670 ? -9.3°
Sets 05:53:52 0° 157° (SSE) 2,541 ? -8.8°
